Regional Weather Roundup
Issued by NWS Cleveland, OH

Home | Current Version | Previous Version | Graphics & Text | Print | Product List | Glossary On
Versions: 1 2 3 4 5 6 7 8 9 10 11 12 13 14 15 16 17 18 19 20 21 22 23 24 25 26 27 28 29 30 31 32 33 34 35 36 37 38 39 40 41 42 43 44 45 46 47 48 49 50
632
ASUS41 KCLE 241710
RWRCLE
OHIO REGIONAL WEATHER ROUNDUP
NATIONAL WEATHER SERVICE CLEVELAND, OH
100 PM EDT SUN JUL 24 2016

NOTE: "FAIR" INDICATES FEW OR NO CLOUDS BELOW 12,000 FEET WITH NO
SIGNIFICANT WEATHER AND/OR OBSTRUCTIONS TO VISIBILITY.

OHZ001>008-015>018-024>027-034-035-043-044-241800-
   NORTHWEST OHIO

CITY           SKY/WX    TMP DP  RH WIND       PRES   REMARKS
DEFIANCE       CLOUDY    75  68  78 E7        30.04R
FINDLAY        PTSUNNY   87  71  58 W10       30.01R HX  93
TOLEDO EXPRESS LGT RAIN  72  72 100 W15       30.03R FOG
TOLEDO EXEC    RAIN      76  73  91 W17       30.02R FOG
LIMA           CLOUDY    88  70  55 SW9       30.02R HX  93
$$

OHZ009>014-019>023-028>033-038-089-241800-
   NORTHEAST OHIO

CITY           SKY/WX    TMP DP  RH WIND       PRES   REMARKS
CLE-HOPKINS    TSTM      79  68  69 S10       30.00S
CLE-LAKEFRONT  CLOUDY    88  70  55 S12       29.95F HX  93
CUY CO. ARPT   CLOUDY    88  70  55 SW8       29.99F HX  92
LORAIN-ELYRIA  RAIN      75  72  90 W10       30.00R FOG
ASHTABULA      CLOUDY    86  66  51 S7        30.00F
AKRON-CANTON   PTSUNNY   87  69  54 SW12      29.99F HX  91
WOOSTER        CLOUDY    84  72  67 SW14      29.98F
MANSFIELD      CLOUDY    87  72  60 SW14      30.02S HX  93
YOUNGSTOWN     PTSUNNY   87  62  43 SE7       30.00F
$$

OHZ042-051>053-060>062-070>072-077>081-241800-
  SOUTHWEST OHIO

CITY           SKY/WX    TMP DP  RH WIND       PRES   REMARKS
CINC-COVINGTON MOSUNNY   91  74  57 S10       30.03F HX 100
CINC-LUNKEN    PTSUNNY   91  75  59 S8        30.00F HX 101
HAMILTON       SUNNY     93  72  50 SW8       30.01F HX 101
DAYTON         PTSUNNY   88  73  61 SW12      30.03F HX  95
WRIGHT-PAT AFB SUNNY     90  75  62 W8        30.01F HX 100
DAYTON GENERAL MOSUNNY   91  72  53 SW8       30.01F HX  98
WILMINGTON     MOSUNNY   90  74  59 SW10      30.02F HX  99
$$

OHZ036-037-039>041-045>050-054>059-063>069-073>076-082>088-241800-
  CENTRAL AND SOUTHEAST OHIO

CITY           SKY/WX    TMP DP  RH WIND       PRES   REMARKS
COLUMBUS       PTSUNNY   89  73  59 W12       30.00F HX  97
OSU AIRPORT    CLOUDY    89  73  59 SW13      30.01F HX  97
BOLTON FIELD   MOSUNNY   90  77  66 SW9       30.02F HX 102
RICKENBACK AFB PTSUNNY   89  75  65 W8        30.01S HX  99
NEWARK         MOSUNNY   91  74  57 SW8G18    30.01F HX 100
MARION         CLOUDY    86  72  62 W7        30.02S HX  92
LANCASTER      SUNNY     89  77  67 SW9       30.02F HX 101
ZANESVILLE     MOSUNNY   93  71  48 S10G16    30.02F HX 100
NEW PHILLY     MOSUNNY   94  68  42 SW7       29.99F HX  98
$$




USA.gov is the U.S. government's official web portal to all federal, state and local government web resources and services.